Weather History for Fountain Dale, PA

Change the Weather History Date:

Saturday, January 19, 2013

  Actual Average (KHGR) Record (KHGR)
Temperature  
Mean Temperature 41 °F -  
Max Temperature 54 °F 33 °F 56 °F (2013)
Min Temperature 28 °F 20 °F 3 °F (1997)
Degree Days  
Heating Degree Days 24    
Moisture  
Dew Point 22 °F    
Average Humidity 46    
Maximum Humidity 67    
Minimum Humidity 30    
Precipitation  
Precipitation 0.00 in - - ()
Sea Level Pressure  
Sea Level Pressure 30.16 in    
Wind  
Wind Speed 4 mph (SW)    
Max Wind Speed 10 mph    
Max Gust Speed 18 mph    
Visibility 10 miles    
Events      
Averages and records for this station are not official NWS values.
T = Trace of Precipitation, MM = Missing Value Source: NWS Daily Summary

Daily Weather History Graph

Daily Weather History Graph

Search for Another Location

Airport:

Trip Planner

Search our weather history database for the weather conditions in past years. The results will help you decide how hot, cold, wet, or windy it might be!

Date:

Astronomy

Jan. 19, 2013 Rise Set
Actual Time 7:27 AM EST 5:14 PM EST
Civil Twilight 6:57 AM EST 5:43 PM EST
Nautical Twilight 6:24 AM EST 6:16 PM EST
Astronomical Twilight 5:52 AM EST 6:48 PM EST
Moon 11:39 AM EST (1/19) 12:59 AM EST (1/19)
Length of Visible Light 10h 46m
Length of Day
9h 47m
First Quarter, 57% of the Moon is Illuminated
Jan 19
First Quarter
Jan 26
Full
Feb 3
Last Quarter
Feb 10
New
Feb 17
First Quarter

Hourly Weather History & Observations

Time (EST) Temp. Windchill Dew Point Humidity Pressure Visibility Wind Dir Wind Speed Gust Speed Precip Events Conditions
12:53 AM 28.9 °F - 19.0 °F 67% 30.37 in 10.0 mi Calm Calm - N/A   Clear
1:53 AM 32.0 °F 26.4 °F 19.9 °F 61% 30.35 in 10.0 mi SW 5.8 mph - N/A   Clear
2:53 AM 33.1 °F 30.0 °F 19.0 °F 56% 30.34 in 10.0 mi Variable 3.5 mph - N/A   Clear
3:53 AM 32.0 °F 28.7 °F 21.0 °F 64% 30.32 in 10.0 mi SW 3.5 mph - N/A   Mostly Cloudy
4:53 AM 33.1 °F 27.7 °F 21.0 °F 61% 30.29 in 10.0 mi Variable 5.8 mph - N/A   Scattered Clouds
5:53 AM 33.1 °F 28.7 °F 19.9 °F 59% 30.29 in 10.0 mi Variable 4.6 mph - N/A   Clear
6:53 AM 33.1 °F 30.0 °F 19.0 °F 56% 30.28 in 10.0 mi SW 3.5 mph - N/A   Clear
7:53 AM 35.1 °F 29.3 °F 19.0 °F 52% 30.28 in 10.0 mi SSW 6.9 mph - N/A   Clear
8:53 AM 36.0 °F 32.1 °F 19.0 °F 50% 30.27 in 10.0 mi South 4.6 mph - N/A   Clear
9:53 AM 39.9 °F - 21.0 °F 47% 30.28 in 10.0 mi Calm Calm - N/A   Clear
10:53 AM 46.0 °F - 23.0 °F 40% 30.25 in 10.0 mi Calm Calm - N/A   Clear
11:53 AM 48.9 °F - 21.9 °F 35% 30.19 in 10.0 mi SSW 8.1 mph - N/A   Clear
12:53 PM 52.0 °F - 21.0 °F 30% 30.14 in 10.0 mi Variable 6.9 mph 18.4 mph N/A   Clear
1:53 PM 52.0 °F - 23.0 °F 32% 30.10 in 10.0 mi SSW 10.4 mph 16.1 mph N/A   Clear
2:53 PM 54.0 °F - 24.1 °F 31% 30.07 in 10.0 mi SSW 10.4 mph 17.3 mph N/A   Clear
3:53 PM 54.0 °F - 25.0 °F 33% 30.05 in 10.0 mi SW 5.8 mph - N/A   Clear
4:53 PM 52.0 °F - 26.1 °F 37% 30.04 in 10.0 mi SW 8.1 mph - N/A   Clear
5:53 PM 48.0 °F - 26.1 °F 42% 30.03 in 10.0 mi SW 6.9 mph - N/A   Clear
6:53 PM 48.0 °F - 26.1 °F 42% 30.03 in 10.0 mi SW 6.9 mph - N/A   Clear
7:53 PM 46.0 °F 43.1 °F 26.1 °F 46% 30.02 in 10.0 mi SW 5.8 mph - N/A   Clear
8:53 PM 44.1 °F 42.5 °F 26.1 °F 49% 29.99 in 10.0 mi Variable 3.5 mph - N/A   Clear
9:53 PM 46.0 °F 41.9 °F 25.0 °F 44% 29.96 in 10.0 mi South 8.1 mph - N/A   Clear
10:53 PM 43.0 °F - 24.1 °F 47% 29.93 in 10.0 mi Calm Calm - N/A   Clear
11:53 PM 48.0 °F - 21.0 °F 34% 29.88 in 10.0 mi SSW 10.4 mph 18.4 mph N/A   Clear